Terminal Aerodrome Forecast
Issued by NWS

Home | Current Version | Previous Version | Text Only | Print | Product List | Glossary Off
Versions: 1 2 3 4 5 6 7 8 9 10 11 12 13 14 15 16 17 18 19 20 21 22

000
FTUS43 KMPX 192100 AAB
TAFRWF
TAF AMD
KRWF 192129Z 1921/2018 20012KT P6SM BKN035
     FM200000 20008KT P6SM SCT040 BKN200
     FM200400 17008KT P6SM SCT080 BKN200
     FM201200 18013G20KT P6SM SCT070 BKN150=

USA.gov is the U.S. government's official web portal to all federal, state and local government web resources and services.